Location: Asheville, NC
(35.6000°N, 82.5500°W)
Time: 01:23:37
(UTC-05:00)

Vanguard 2 Rocket - Pass Details

Date: 15 December 2017
Orbit: 556 x 3326 km, 32.9° (Epoch: 20 January)

Event Time Altitude Azimuth Distance (km) Brightness Sun altitude
Exits shadow 04:06:50 14° 206° (SSW) 5,157 10.5 -40.9°
Drops below altitude 10° 04:10:04 10° 194° (SSW) 5,298 10.6 -40.2°
Sets 04:15:39 0° 176° (S) 5,820 11.1 -39.1°
